Regional Weather Roundup
Issued by NWS Nashville, TN

Home | Current Version | Previous Version | Text Only | Print | Product List | Glossary On
Versions: 1 2 3 4 5 6 7 8 9 10 11 12 13 14 15 16 17 18 19 20 21 22 23 24 25 26 27 28 29 30 31 32 33 34 35 36 37 38 39 40 41 42 43 44 45 46 47 48 49 50
000
ASUS44 KOHX 280615
RWROHX
MIDDLE TENNESSEE HOURLY WEATHER ROUNDUP
NATIONAL WEATHER SERVICE NASHVILLE TN
100 AM CDT THU MAY 28 2015

NOTE: "FAIR" INDICATES FEW OR NO CLOUDS BELOW 12,000 FEET WITH
NO SIGNIFICANT WEATHER AND/OR OBSTRUCTIONS TO VISIBILITY.

* THESE REPORTS ARE NOT UNDER NWS QUALITY CONTROL AND MAY NOT
  REPORT WEATHER SUCH AS PRECIPITATION AND FOG.


TNZ005>011-023>034-057-059-062>066-078-080-280700
...NORTHERN MIDDLE TENNESSEE...

CITY           SKY/WX    TMP DP  RH WIND       PRES   REMARKS
CASTALIAN SPRG   N/A     64  64 100 MISG      29.96
CLARKSVILLE    CLOUDY    66  65  96 CALM      30.16S FOG
CROSSVILLE     CLOUDY    67  62  84 SW5       30.22F
GLADEVILLE*      N/A     66  64  94 CALM      30.11
JOELTON*         N/A     66  64  94 CALM      30.09
LIVINGSTON     CLOUDY    68  63  84 SW8       30.20
MOUNT JULIET*    N/A     68  68 100 CALM      30.00
NASHVILLE      CLOUDY    67  65  93 S3        30.16F
OLD HICKORY*     N/A     68  68 100 CALM      29.79
PORTLAND       CLOUDY    64  64 100 CALM      30.17S
ROCKWOOD       CLOUDY    68  64  86 SW7       30.21
SMYRNA         CLOUDY    67  66  96 CALM      30.17F
SPARTA         CLEAR     68  63  83 S3        30.17F
$$
TNZ056-058-060-061-075>077-079-093>097-280700
...SOUTHERN MIDDLE TENNESSEE...

CITY           SKY/WX    TMP DP  RH WIND       PRES   REMARKS
COLUMBIA       MOCLDY    66  66 100 CALM      30.14F
LEWISBURG      CLOUDY    67  65  93 N3        30.15F
MANCHESTER*      N/A     64   0   7 CALM      30.08
MCMINNVILLE    CLEAR     64  64 100 CALM      30.17F
MOUNT PLEASANT   N/A     66  66 100 CALM      30.07
SHELBYVILLE    CLOUDY    66  66 100 CALM      30.15F
TULLAHOMA      PTCLDY    64  63  94 E6        30.15F
WINCHESTER     MOCLDY    64  63  94 E3        30.16F
$$


...KEY TO REMARKS...
VSB - VISIBILITY IN MILES
WCI - WIND CHILL INDEX
HX  - HEAT INDEX



USA.gov is the U.S. government's official web portal to all federal, state and local government web resources and services.